SCP
0 0 0 0 0 0 0 0 0 0 0 0 0 0 0 -0 0 0 0 0 0 -0 -0 -0 0 0 0 0 0 0 0 0 0 0 0 0 0 0 0 0 0 0 0 0 0
0 0 0 0 0 0 0 0 0 0 -0 -0 0 0 -0 0 0 0 0 -0 -0 -0 0 0 0 0 0 0 0 0 0 0 0 0 0 0 0 0 0 0 0 0 0 0 0
0 0 0 0 0 0 0 0 0 0 -0 -0 -0 0 -0 0 0 0 -0 -0 -0 0 0 0 0 0 -0 -0 -0 -0 0 0 0 0 0 0 0 0 0 0 0 0 0 0 0
0 0 0 0 0 0 0 0 0 0 0 -0 -0 -0 0 0 0 0 -0 -0 0 0 0 0 0 0 0 0 0 0 0 0 0 0 0 0 0 0 0 0 0 0 0 0 0
0 0 0 0 0 0 0 0 0 0 0 -0 -0 -0 0 0 0 0 -0 -0 0 0 0 0 0 0 0 0 0 0 0 0 0 0 0 0 0 0 0 0 0 0 0 0 0
0 0 0 0 0 0 0 0 0 0 0 -0 -0 0 -0 0 0 0 0 0 0 0 -0 0 0 0 -0 0 0 0 0 0 0 0 0 0 0 0 0 0 0 0 0 0 0
0 0 0 0 0 0 0 0 0 0 0 0 -0 0 -0 0 0 0 0 0 0 0 0 0 0 -0 0 0 0 0 0 0 0 0 0 0 0 0 0 0 0 0 0 0 0
0 0 0 0 0 0 0 0 0 0 0 0 0 0 0 0 0 0 0 0 0 0 0 0 -0 0 0 0 0 0 0 0 0 0 0 0 0 0 0 0 0 0 0 0 0
0 0 0 0 0 0 0 0 0 0 0 0 0 0 0 0 0 -0 0 -0 0 0 0 0 0 0 0 0 0 0 0 0 0 0 0 0 0 0 0 0 -0 -0 -0 0 0
0 0 0 0 0 0 0 0 0 0 0 0 0 0 0 -0 -0 -0 -0 -0 -0 -0 0 -0 0 0 0 0 0 0 0 0 0 0 0 0 0 0 0 0 -0 -0 -0 0 0
0 0 0 0 0 0 0 0 0 0 0 0 0 0 0 -0 0 -0 -0 0 -0 -0 0 0 0 0 0 0 0 0 0 0 0 0 0 0 0 0 0 0 0 -0 -0 -0 0
0 0 0 0 0 0 0 0 0 0 0 0 0 0 0 0 0 -0 -0 0 -0 0 0 0 0 0 0 0 0 0 0 0 0 0 0 0 0 0 0 0 0 -0 -0 -0 0
0 0 0 0 0 0 0 0 0 0 0 0 0 0 0 0 0 0 0 0 0 0 0 0 0 0 0 0 0 0 0 0 0 0 0 0 0 0 0 0 0 0 -0 0 0
0 0 0 0 0 0 0 0 0 0 0 0 0 0 0 0 0 0 0 0 0 0 0 0 0 0 0 0 0 0 0 0 0 0 0 0 0 0 0 0 0 0 -0 0 0
0 0 0 0 0 0 0 0 0 0 0 0 0 0 0 0 0 0 0 0 0 0 0 0 0 0 0 0 0 0 0 0 0 0 0 0 0 0 0 -0 -0 0 0 0 -0
0 0 0 0 0 0 0 0 0 0 0 0 0 0 0 0 0 0 0 0 0 0 0 0 0 0 0 0 0 0 0 0 0 0 0 0 0 0 0 0 -0 0 -0 0 -0
0 0 0 0 0 0 0 0 0 0 0 0 0 0 0 0 0 0 0 0 0 0 0 0 0 0 0 0 0 0 0 0 0 0 0 0 0 0 0 0 0 0 0 -0 0
0 0 0 0 0 0 0 0 0 0 0 0 0 0 0 0 0 0 0 0 0 0 0 0 0 0 0 0 0 0 0 0 0 0 0 0 0 0 0 0 0 0 0 -0 0
0 0 0 0 0 0 0 0 0 0 0 0 0 0 0 0 0 0 0 0 0 0 0 0 0 0 0 0 0 0 0 0 0 0 0 0 0 0 -0 0 -0 0 0 0 0
0 0 0 0 0 0 0 0 0 0 0 0 0 0 0 0 0 0 0 0 0 0 0 0 0 0 0 0 0 0 0 0 0 0 0 0 0 0 0 0 -0 -0 0 0 0
0 0 0 0 0 0 0 0 0 0 0 0 0 0 0 0 0 0 0 0 0 0 0 0 0 0 0 0 0 0 0 0 0 0 0 0 0 0 0 0 0 0 0 0 0
0 0 0 0 0 0 0 0 0 0 0 0 0 0 0 0 0 0 0 0 0 0 0 0 0 0 0 0 0 0 0 0 0 0 0 0 0 0 0 0 0 0 0 0 -0
0 0 0 0 0 0 0 0 0 0 0 0 0 0 0 0 0 0 0 0 0 0 0 0 0 0 0 0 0 0 0 0 0 0 0 0 0 0 0 0 0 0 0 0 -0
0 0 0 0 0 0 0 0 0 0 0 0 0 0 0 0 0 0 0 0 0 0 0 0 0 0 0 0 0 0 0 0 0 0 0 0 0 0 0 0 0 0 0 -0 -0
0 0 0 0 0 0 0 0 0 0 0 0 0 0 0 0 0 0 0 0 0 0 0 0 0 0 0 0 0 0 0 0 0 0 0 0 0 0 0 0 0 0 0 0 0
0 0 0 0 0 0 0 0 0 0 0 0 0 0 0 0 0 0 0 0 0 0 0 0 0 0 0 0 0 0 0 0 0 0 0 0 0 0 0 0 0 0 0 0 0
0 0 0 0 0 0 0 0 0 0 0 0 0 0 0 0 0 0 0 0 0 0 0 0 0 0 0 0 0 0 0 0 0 0 0 0 0 0 0 0 0 0 0 0 0
Wind_Speed_500mb
4 4 6 9 12 16 19 21 22 26 26 26 23 18 9 15 38 22 30 30 32 27 24 16 15 16 15 20 17 9 2 8 8 10 10 29 24 23 26 21 7 22 23 35 48
6 5 6 9 11 15 18 20 21 23 24 22 20 15 9 12 20 45 33 25 25 22 23 16 16 15 14 13 13 12 7 10 11 13 17 25 24 24 17 21 15 41 38 44 46
9 7 6 8 11 14 17 19 22 23 22 19 16 14 8 9 14 34 31 27 25 21 21 16 18 22 20 18 22 14 10 7 14 15 14 12 15 16 23 12 31 56 64 59 54
10 9 7 8 11 14 15 18 21 22 20 15 10 16 26 11 6 25 28 26 25 27 18 27 12 12 12 14 12 13 16 14 11 15 10 15 23 29 11 13 41 53 54 54 51
10 9 9 8 11 12 14 17 19 18 16 13 10 9 12 25 19 20 26 28 25 22 20 29 31 14 15 13 14 18 10 17 13 19 21 27 18 10 22 44 51 49 51 49 49
11 9 9 8 9 11 13 15 14 14 20 20 17 15 12 18 20 21 24 23 30 34 40 30 25 34 26 12 11 8 12 13 20 24 8 32 12 12 37 45 53 55 52 50 47
12 11 9 7 7 8 10 11 8 7 12 17 13 23 36 20 21 18 18 26 30 28 39 46 22 7 12 14 11 10 13 10 34 24 15 39 21 25 39 46 53 63 57 51 49
12 11 9 6 4 6 8 8 6 5 5 3 11 14 13 19 17 13 12 18 23 21 31 29 16 35 14 15 9 8 7 5 17 31 14 26 15 34 47 50 61 68 64 59 55
13 12 9 5 3 4 5 4 6 8 8 6 6 11 9 11 11 12 12 6 7 21 23 15 22 19 10 8 9 17 9 10 4 13 18 19 12 36 46 49 53 61 64 62 62
16 13 10 6 4 3 4 12 11 6 8 10 13 13 9 8 13 9 7 7 5 15 10 11 16 12 16 2 7 7 7 1 6 14 19 13 15 25 45 48 57 57 62 65 65
18 14 12 8 5 6 10 6 3 6 13 15 12 19 10 4 22 11 7 7 5 5 5 14 18 19 14 16 17 14 8 2 4 1 14 10 9 25 42 50 61 61 59 64 67
19 17 13 10 7 6 9 8 6 14 19 18 21 23 17 6 3 16 7 7 11 7 2 9 15 7 9 10 16 9 6 11 7 7 10 11 11 8 39 45 50 56 64 71 75
22 19 15 11 10 6 10 10 15 18 8 5 8 10 10 13 11 22 11 12 14 15 10 9 10 7 8 13 15 11 8 5 8 16 4 20 10 2 32 45 55 55 56 59 68
23 20 17 12 9 10 7 13 22 8 5 4 1 3 3 7 7 21 11 6 8 8 11 15 3 4 10 9 5 6 6 7 8 10 3 11 7 6 35 42 57 66 65 65 67
25 23 20 19 7 15 11 21 15 4 3 6 3 2 8 9 4 16 19 11 10 7 4 5 2 4 5 5 2 7 2 2 1 4 6 5 8 8 35 45 49 65 72 72 70
26 24 22 21 15 13 16 24 13 6 11 7 1 3 6 10 7 4 7 13 10 9 23 8 3 6 5 1 4 3 10 6 2 3 4 5 7 7 24 32 43 65 72 78 82
28 27 24 22 16 17 22 24 6 6 4 8 7 4 7 6 6 10 7 7 2 8 2 3 5 2 4 5 4 1 6 2 3 3 4 2 7 6 31 34 39 54 66 71 77
34 31 25 23 19 25 31 3 7 3 10 1 7 12 7 5 6 5 4 6 5 4 6 7 5 4 6 6 5 8 5 4 5 4 8 5 5 6 28 36 47 51 57 71 84
36 31 29 27 26 32 17 3 10 11 14 22 10 7 5 6 4 2 2 3 2 5 1 7 5 1 4 1 5 5 7 4 4 2 6 4 2 5 35 35 50 57 65 75 88
44 33 30 31 31 32 4 9 4 4 12 7 9 4 11 13 10 6 7 5 6 4 3 7 8 0 3 2 9 5 13 4 3 3 7 3 4 9 34 36 38 49 58 64 78
44 19 25 34 32 20 7 10 6 10 7 8 6 9 7 12 12 9 11 5 6 9 4 5 1 7 2 2 4 5 6 4 3 3 5 8 2 6 19 23 28 42 46 52 64
45 10 32 40 10 3 7 12 10 10 8 4 7 9 12 12 10 12 14 4 12 13 10 3 4 7 4 1 7 3 5 4 4 6 5 4 4 6 15 20 27 35 42 46 50
44 14 41 55 10 7 2 5 9 11 10 10 6 3 5 12 8 9 10 4 13 10 9 9 2 8 4 2 2 7 7 4 6 3 9 5 1 3 16 22 25 30 40 43 46
33 9 15 41 16 9 13 9 10 9 9 8 9 10 10 7 3 12 11 6 11 8 11 4 3 3 3 5 5 9 15 12 8 6 5 14 16 8 21 22 28 28 30 34 38
31 15 26 15 25 12 15 24 17 15 9 12 2 9 14 10 9 11 10 10 6 17 8 4 6 5 2 1 2 6 13 19 20 11 11 1 10 12 8 17 21 19 21 26 33
36 19 23 13 34 29 20 22 30 13 20 11 8 21 16 12 16 22 20 15 10 12 9 3 6 3 1 4 3 10 18 20 19 16 17 15 20 11 4 10 16 17 18 21 25
50 37 41 27 24 26 21 18 23 28 14 9 25 16 17 7 7 16 15 26 25 17 9 8 11 6 4 7 9 12 23 32 19 14 16 14 4 7 4 7 10 11 12 13 17
Wind_Direction_500mb
293 325 349 352 360 0 4 13 9 8 3 8 16 20 46 68 45 54 38 17 10 20 26 41 62 82 74 59 57 35 86 68 55 21 7 359 358 352 335 336 6 16 1 333 340
281 307 327 340 357 2 360 4 8 8 4 5 18 33 60 92 53 45 37 28 22 29 38 69 79 86 64 35 25 34 48 54 44 33 2 344 351 332 335 350 343 338 337 336 339
278 290 313 329 344 352 2 357 4 6 4 3 19 38 74 99 69 15 31 33 26 35 45 60 74 83 66 46 17 21 59 74 50 31 354 337 340 324 334 10 1 336 328 329 331
266 281 302 321 333 348 1 360 359 4 3 11 53 80 57 108 70 18 35 36 32 25 49 55 82 70 76 67 25 105 70 43 26 12 26 348 317 325 14 7 335 325 320 319 320
254 268 285 312 326 349 356 2 360 11 18 43 84 85 80 69 47 40 34 40 46 53 73 73 75 84 86 85 82 68 61 72 52 22 20 346 355 7 30 342 340 336 331 328 321
243 252 272 306 333 346 353 360 5 47 71 76 75 74 100 80 62 49 45 49 59 61 67 74 91 99 92 92 70 99 99 119 27 15 6 2 25 26 359 345 343 343 335 327 324
237 248 273 303 328 343 343 359 16 108 94 84 88 70 77 80 68 63 54 57 62 72 78 74 81 91 112 110 94 93 105 116 28 11 6 344 64 21 351 347 346 345 339 332 323
233 240 263 292 313 324 340 6 32 82 192 114 79 83 78 67 71 63 66 66 62 77 81 81 88 73 67 118 74 67 85 32 28 9 342 338 55 9 355 351 349 346 342 336 330
227 238 257 272 283 313 351 32 87 86 89 108 106 105 92 61 82 93 72 88 77 81 90 94 63 70 63 139 110 35 78 18 28 35 345 8 25 354 358 356 353 350 343 335 329
223 228 238 240 243 241 122 84 102 101 102 97 95 99 84 31 53 76 92 56 57 134 64 58 62 84 43 182 90 100 110 83 321 9 355 34 44 11 9 2 356 350 346 337 330
222 222 229 226 229 219 204 217 249 55 78 79 89 96 104 88 46 47 136 48 47 77 94 28 77 69 67 66 108 123 135 37 252 78 333 343 317 15 12 6 358 353 346 340 331
217 218 223 222 222 223 209 210 206 145 92 82 89 88 81 67 6 45 81 66 31 79 79 82 83 108 112 109 129 124 107 16 263 279 319 324 288 11 20 8 359 351 349 343 337
213 215 215 219 226 236 223 215 161 140 89 66 78 77 74 59 38 9 57 84 49 58 59 86 98 142 145 94 137 78 71 30 309 313 230 310 220 331 10 6 357 356 350 342 336
211 212 210 207 226 209 197 177 161 146 81 175 229 42 59 91 57 31 48 89 61 121 56 68 31 147 119 80 333 112 119 345 303 324 359 359 300 15 354 2 358 349 349 342 336
210 210 206 196 203 192 192 166 163 104 301 67 72 88 74 86 91 17 37 64 87 88 261 83 118 84 80 69 6 87 335 306 237 333 314 50 280 26 0 355 348 344 347 342 337
208 210 206 201 208 197 178 163 146 48 248 156 254 149 120 49 44 6 64 71 110 80 57 83 18 336 25 106 159 11 134 123 181 259 229 28 327 43 9 348 344 340 340 342 339
203 208 206 197 201 188 168 152 76 199 30 173 149 163 102 69 59 18 28 43 95 120 122 23 35 314 297 157 164 243 169 229 208 238 321 337 268 44 11 358 343 334 339 345 342
203 200 204 198 193 177 163 96 209 78 208 159 127 113 143 111 62 32 112 133 99 83 126 167 184 339 2 3 84 41 19 49 293 292 315 330 279 78 9 352 346 344 349 359 357
198 195 201 193 187 177 177 175 216 188 152 155 114 139 155 129 128 119 30 171 127 162 220 149 124 357 1 340 309 129 69 34 110 49 273 268 201 209 352 356 352 353 357 359 2
186 190 201 190 183 176 111 252 217 162 128 167 172 225 159 162 165 187 182 175 155 138 167 163 123 110 87 243 49 19 147 138 81 314 277 241 264 340 343 341 345 350 354 355 10
187 183 197 185 176 176 193 222 202 192 154 164 147 135 156 154 164 178 165 165 201 134 133 161 215 134 219 298 192 167 150 101 79 271 296 317 89 354 335 337 337 342 354 358 13
171 179 187 177 159 216 183 178 162 162 199 121 114 110 149 157 145 176 193 191 171 155 149 157 106 129 109 49 313 318 135 177 203 180 246 287 284 63 354 352 349 345 355 1 5
163 140 175 179 197 212 112 160 183 144 194 164 137 145 141 156 130 159 162 125 159 155 152 176 172 118 119 179 225 235 187 140 114 127 220 247 40 142 14 10 5 357 359 3 11
152 157 169 207 227 172 158 167 169 187 176 161 125 120 129 126 66 155 143 145 166 136 123 127 138 242 210 99 135 192 189 189 194 189 200 240 293 338 357 358 357 1 4 9 16
167 194 176 181 213 203 197 165 155 173 221 188 134 211 156 135 133 167 146 136 121 145 99 147 161 178 124 73 266 213 192 190 202 207 221 68 262 311 324 336 346 348 6 18 23
170 161 165 160 165 181 196 201 176 160 158 202 227 184 179 161 187 183 157 179 180 169 140 135 147 131 208 305 256 251 232 218 220 233 245 261 272 168 253 316 349 5 14 28 31
190 177 160 161 160 181 199 179 190 145 208 194 184 143 189 212 143 130 153 147 150 148 133 137 143 148 213 352 300 270 224 204 194 201 207 211 236 152 229 279 327 0 23 37 47
Wind_Speed_850mb
4 4 6 9 12 16 19 21 22 26 26 26 23 18 9 15 38 22 30 30 32 27 24 16 15 16 15 20 17 9 2 8 8 10 10 29 24 23 26 21 7 22 23 35 48
6 5 6 9 11 15 18 20 21 23 24 22 20 15 9 12 20 45 33 25 25 22 23 16 16 15 14 13 13 12 7 10 11 13 17 25 24 24 17 21 15 41 38 44 46
9 7 6 8 11 14 17 19 22 23 22 19 16 14 8 9 14 34 31 27 25 21 21 16 18 22 20 18 22 14 10 7 14 15 14 12 15 16 23 12 31 56 64 59 54
10 9 7 8 11 14 15 18 21 22 20 15 10 16 26 11 6 25 28 26 25 27 18 27 12 12 12 14 12 13 16 14 11 15 10 15 23 29 11 13 41 53 54 54 51
10 9 9 8 11 12 14 17 19 18 16 13 10 9 12 25 19 20 26 28 25 22 20 29 31 14 15 13 14 18 10 17 13 19 21 27 18 10 22 44 51 49 51 49 49
11 9 9 8 9 11 13 15 14 14 20 20 17 15 12 18 20 21 24 23 30 34 40 30 25 34 26 12 11 8 12 13 20 24 8 32 12 12 37 45 53 55 52 50 47
12 11 9 7 7 8 10 11 8 7 12 17 13 23 36 20 21 18 18 26 30 28 39 46 22 7 12 14 11 10 13 10 34 24 15 39 21 25 39 46 53 63 57 51 49
12 11 9 6 4 6 8 8 6 5 5 3 11 14 13 19 17 13 12 18 23 21 31 29 16 35 14 15 9 8 7 5 17 31 14 26 15 34 47 50 61 68 64 59 55
13 12 9 5 3 4 5 4 6 8 8 6 6 11 9 11 11 12 12 6 7 21 23 15 22 19 10 8 9 17 9 10 4 13 18 19 12 36 46 49 53 61 64 62 62
16 13 10 6 4 3 4 12 11 6 8 10 13 13 9 8 13 9 7 7 5 15 10 11 16 12 16 2 7 7 7 1 6 14 19 13 15 25 45 48 57 57 62 65 65
18 14 12 8 5 6 10 6 3 6 13 15 12 19 10 4 22 11 7 7 5 5 5 14 18 19 14 16 17 14 8 2 4 1 14 10 9 25 42 50 61 61 59 64 67
19 17 13 10 7 6 9 8 6 14 19 18 21 23 17 6 3 16 7 7 11 7 2 9 15 7 9 10 16 9 6 11 7 7 10 11 11 8 39 45 50 56 64 71 75
22 19 15 11 10 6 10 10 15 18 8 5 8 10 10 13 11 22 11 12 14 15 10 9 10 7 8 13 15 11 8 5 8 16 4 20 10 2 32 45 55 55 56 59 68
23 20 17 12 9 10 7 13 22 8 5 4 1 3 3 7 7 21 11 6 8 8 11 15 3 4 10 9 5 6 6 7 8 10 3 11 7 6 35 42 57 66 65 65 67
25 23 20 19 7 15 11 21 15 4 3 6 3 2 8 9 4 16 19 11 10 7 4 5 2 4 5 5 2 7 2 2 1 4 6 5 8 8 35 45 49 65 72 72 70
26 24 22 21 15 13 16 24 13 6 11 7 1 3 6 10 7 4 7 13 10 9 23 8 3 6 5 1 4 3 10 6 2 3 4 5 7 7 24 32 43 65 72 78 82
28 27 24 22 16 17 22 24 6 6 4 8 7 4 7 6 6 10 7 7 2 8 2 3 5 2 4 5 4 1 6 2 3 3 4 2 7 6 31 34 39 54 66 71 77
34 31 25 23 19 25 31 3 7 3 10 1 7 12 7 5 6 5 4 6 5 4 6 7 5 4 6 6 5 8 5 4 5 4 8 5 5 6 28 36 47 51 57 71 84
36 31 29 27 26 32 17 3 10 11 14 22 10 7 5 6 4 2 2 3 2 5 1 7 5 1 4 1 5 5 7 4 4 2 6 4 2 5 35 35 50 57 65 75 88
44 33 30 31 31 32 4 9 4 4 12 7 9 4 11 13 10 6 7 5 6 4 3 7 8 0 3 2 9 5 13 4 3 3 7 3 4 9 34 36 38 49 58 64 78
44 19 25 34 32 20 7 10 6 10 7 8 6 9 7 12 12 9 11 5 6 9 4 5 1 7 2 2 4 5 6 4 3 3 5 8 2 6 19 23 28 42 46 52 64
45 10 32 40 10 3 7 12 10 10 8 4 7 9 12 12 10 12 14 4 12 13 10 3 4 7 4 1 7 3 5 4 4 6 5 4 4 6 15 20 27 35 42 46 50
44 14 41 55 10 7 2 5 9 11 10 10 6 3 5 12 8 9 10 4 13 10 9 9 2 8 4 2 2 7 7 4 6 3 9 5 1 3 16 22 25 30 40 43 46
33 9 15 41 16 9 13 9 10 9 9 8 9 10 10 7 3 12 11 6 11 8 11 4 3 3 3 5 5 9 15 12 8 6 5 14 16 8 21 22 28 28 30 34 38
31 15 26 15 25 12 15 24 17 15 9 12 2 9 14 10 9 11 10 10 6 17 8 4 6 5 2 1 2 6 13 19 20 11 11 1 10 12 8 17 21 19 21 26 33
36 19 23 13 34 29 20 22 30 13 20 11 8 21 16 12 16 22 20 15 10 12 9 3 6 3 1 4 3 10 18 20 19 16 17 15 20 11 4 10 16 17 18 21 25
50 37 41 27 24 26 21 18 23 28 14 9 25 16 17 7 7 16 15 26 25 17 9 8 11 6 4 7 9 12 23 32 19 14 16 14 4 7 4 7 10 11 12 13 17
Wind_Direction_850mb
293 325 349 352 360 0 4 13 9 8 3 8 16 20 46 68 45 54 38 17 10 20 26 41 62 82 74 59 57 35 86 68 55 21 7 359 358 352 335 336 6 16 1 333 340
281 307 327 340 357 2 360 4 8 8 4 5 18 33 60 92 53 45 37 28 22 29 38 69 79 86 64 35 25 34 48 54 44 33 2 344 351 332 335 350 343 338 337 336 339
278 290 313 329 344 352 2 357 4 6 4 3 19 38 74 99 69 15 31 33 26 35 45 60 74 83 66 46 17 21 59 74 50 31 354 337 340 324 334 10 1 336 328 329 331
266 281 302 321 333 348 1 360 359 4 3 11 53 80 57 108 70 18 35 36 32 25 49 55 82 70 76 67 25 105 70 43 26 12 26 348 317 325 14 7 335 325 320 319 320
254 268 285 312 326 349 356 2 360 11 18 43 84 85 80 69 47 40 34 40 46 53 73 73 75 84 86 85 82 68 61 72 52 22 20 346 355 7 30 342 340 336 331 328 321
243 252 272 306 333 346 353 360 5 47 71 76 75 74 100 80 62 49 45 49 59 61 67 74 91 99 92 92 70 99 99 119 27 15 6 2 25 26 359 345 343 343 335 327 324
237 248 273 303 328 343 343 359 16 108 94 84 88 70 77 80 68 63 54 57 62 72 78 74 81 91 112 110 94 93 105 116 28 11 6 344 64 21 351 347 346 345 339 332 323
233 240 263 292 313 324 340 6 32 82 192 114 79 83 78 67 71 63 66 66 62 77 81 81 88 73 67 118 74 67 85 32 28 9 342 338 55 9 355 351 349 346 342 336 330
227 238 257 272 283 313 351 32 87 86 89 108 106 105 92 61 82 93 72 88 77 81 90 94 63 70 63 139 110 35 78 18 28 35 345 8 25 354 358 356 353 350 343 335 329
223 228 238 240 243 241 122 84 102 101 102 97 95 99 84 31 53 76 92 56 57 134 64 58 62 84 43 182 90 100 110 83 321 9 355 34 44 11 9 2 356 350 346 337 330
222 222 229 226 229 219 204 217 249 55 78 79 89 96 104 88 46 47 136 48 47 77 94 28 77 69 67 66 108 123 135 37 252 78 333 343 317 15 12 6 358 353 346 340 331
217 218 223 222 222 223 209 210 206 145 92 82 89 88 81 67 6 45 81 66 31 79 79 82 83 108 112 109 129 124 107 16 263 279 319 324 288 11 20 8 359 351 349 343 337
213 215 215 219 226 236 223 215 161 140 89 66 78 77 74 59 38 9 57 84 49 58 59 86 98 142 145 94 137 78 71 30 309 313 230 310 220 331 10 6 357 356 350 342 336
211 212 210 207 226 209 197 177 161 146 81 175 229 42 59 91 57 31 48 89 61 121 56 68 31 147 119 80 333 112 119 345 303 324 359 359 300 15 354 2 358 349 349 342 336
210 210 206 196 203 192 192 166 163 104 301 67 72 88 74 86 91 17 37 64 87 88 261 83 118 84 80 69 6 87 335 306 237 333 314 50 280 26 0 355 348 344 347 342 337
208 210 206 201 208 197 178 163 146 48 248 156 254 149 120 49 44 6 64 71 110 80 57 83 18 336 25 106 159 11 134 123 181 259 229 28 327 43 9 348 344 340 340 342 339
203 208 206 197 201 188 168 152 76 199 30 173 149 163 102 69 59 18 28 43 95 120 122 23 35 314 297 157 164 243 169 229 208 238 321 337 268 44 11 358 343 334 339 345 342
203 200 204 198 193 177 163 96 209 78 208 159 127 113 143 111 62 32 112 133 99 83 126 167 184 339 2 3 84 41 19 49 293 292 315 330 279 78 9 352 346 344 349 359 357
198 195 201 193 187 177 177 175 216 188 152 155 114 139 155 129 128 119 30 171 127 162 220 149 124 357 1 340 309 129 69 34 110 49 273 268 201 209 352 356 352 353 357 359 2
186 190 201 190 183 176 111 252 217 162 128 167 172 225 159 162 165 187 182 175 155 138 167 163 123 110 87 243 49 19 147 138 81 314 277 241 264 340 343 341 345 350 354 355 10
187 183 197 185 176 176 193 222 202 192 154 164 147 135 156 154 164 178 165 165 201 134 133 161 215 134 219 298 192 167 150 101 79 271 296 317 89 354 335 337 337 342 354 358 13
171 179 187 177 159 216 183 178 162 162 199 121 114 110 149 157 145 176 193 191 171 155 149 157 106 129 109 49 313 318 135 177 203 180 246 287 284 63 354 352 349 345 355 1 5
163 140 175 179 197 212 112 160 183 144 194 164 137 145 141 156 130 159 162 125 159 155 152 176 172 118 119 179 225 235 187 140 114 127 220 247 40 142 14 10 5 357 359 3 11
152 157 169 207 227 172 158 167 169 187 176 161 125 120 129 126 66 155 143 145 166 136 123 127 138 242 210 99 135 192 189 189 194 189 200 240 293 338 357 358 357 1 4 9 16
167 194 176 181 213 203 197 165 155 173 221 188 134 211 156 135 133 167 146 136 121 145 99 147 161 178 124 73 266 213 192 190 202 207 221 68 262 311 324 336 346 348 6 18 23
170 161 165 160 165 181 196 201 176 160 158 202 227 184 179 161 187 183 157 179 180 169 140 135 147 131 208 305 256 251 232 218 220 233 245 261 272 168 253 316 349 5 14 28 31
190 177 160 161 160 181 199 179 190 145 208 194 184 143 189 212 143 130 153 147 150 148 133 137 143 148 213 352 300 270 224 204 194 201 207 211 236 152 229 279 327 0 23 37 47